Home   Weather   Resolute Bay   Past weeks

Flag for Canada Past Weather in Resolute Bay, Nunavut, Canada — Yesterday and Last 2 Weeks

-2 °F


Feels Like: -27 °F
Forecast: -8 / 4 °F
Wind: 25 mph from Northeast

Location: Resolute

Current Time: Oct 27, 2016 at 7:43:30 PM

Latest Report: Oct 27, 2016 at 7:00 PM

Visibility: 15 mi

Pressure: 30.14 "Hg

Humidity: 65%

Dew Point: -11 °F

Location of Resolute BayLocation

Past Weather in Resolute Bay — Graph


Resolute Bay Temperature Yesterday

Maximum temperature yesterday: 0 °F (at 2:00 PM)
Minimum temperature yesterday: -8 °F (at 6:00 AM)
Average temperature yesterday: -4 °F

High & Low Weather Summary for the Past Weeks

High21 °F (Oct 25, 6:00 AM)93% (Oct 13, 12:54 PM)30.41 "Hg (Oct 13, 12:54 PM)
Low-9 °F (Oct 27, 1:00 AM)65% (Oct 27, 5:00 PM)29.70 "Hg (Oct 15, 11:00 PM)
Average9 °F83%30.01 "Hg
* Reported Oct 12 6:00 PM — Oct 27 6:00 PM, Resolute Bay, Weather by CustomWeather, © 2016

Note: Actual official high and low records may vary slightly from our data, if they occured in-between our weather recording intervals... More about our weather records


Resolute Bay Weather History for the Previous 24 Hours

Scroll right to see more
Time TempWeatherWind HumidityBarometerVisibility
6:00 PM
Thu, Oct 27
-2 °FPassing clouds.2 mph65%30.15 "Hg15 mi
5:00 PM-2 °FPassing clouds.8 mph65%30.15 "Hg15 mi
4:00 PM-6 °FPassing clouds.13 mph70%30.14 "Hg15 mi
3:00 PM-2 °FPartly sunny.23 mph71%30.12 "Hg15 mi
2:00 PM-4 °FPartly sunny.23 mph77%30.12 "Hg15 mi
1:00 PM-8 °FPartly sunny.26 mph77%30.11 "Hg15 mi
12:00 PM-8 °FSnow flurries. Partly sunny.20 mph77%30.12 "Hg15 mi
11:00 AM-8 °FSnow flurries. Scattered clouds.21 mph77%30.12 "Hg15 mi
10:00 AM-8 °FSnow flurries. Passing clouds.20 mph77%30.12 "Hg15 mi
9:00 AM-8 °FPassing clouds.18 mph77%30.10 "Hg15 mi
8:00 AM-6 °FSnow flurries. Passing clouds.22 mph70%30.09 "Hg15 mi
7:00 AM-6 °FSnow flurries. Passing clouds.15 mph70%30.10 "Hg15 mi
6:00 AM-9 °FSnow flurries. Passing clouds.7 mph77%30.11 "Hg15 mi
5:00 AM-6 °FSnow flurries. Clear.12 mph77%30.09 "Hg15 mi
4:00 AM-8 °FSnow flurries. Clear.9 mph77%30.08 "Hg15 mi
3:00 AM-9 °FSnow flurries. Clear.12 mph77%30.07 "Hg15 mi
2:00 AM-9 °FSnow flurries. Clear.10 mph84%30.06 "Hg15 mi
1:00 AM-9 °FSnow flurries. Clear.6 mph70%30.05 "Hg15 mi
12:00 AM-8 °FSnow flurries. Passing clouds.8 mph70%30.03 "Hg15 mi
11:00 PM
Wed, Oct 26
-8 °FSnow flurries. Passing clouds.9 mph77%30.02 "Hg15 mi
10:00 PM-8 °FSnow flurries. Passing clouds.15 mph70%30.00 "Hg15 mi
9:00 PM-4 °FSnow flurries. Passing clouds.16 mph71%29.99 "Hg15 mi
8:00 PM-4 °FLight snow. Passing clouds.9 mph77%29.98 "Hg15 mi
7:00 PM0 °FLight snow. Overcast.15 mph78%29.97 "Hg15 mi
Weather by CustomWeather, © 2016

See weather overviewHow to use our weather pages